EUTELSAT 7C

Last updated on Sat Aug 22 2026 00:03:00 GMT+0000 (Coordinated Universal Time)

1 44334U 19034B 26233.26973227 .00000046 00000+0 00000+0 0 9997 2 44334 0.0753 181.6181 0003500 311.4411 300.6439 1.00271459 7487
UTC large
Height (km)
Speed (km/s)
/
Latitude / Longitude
Inclination (degrees)
Orbital Period (minutes)
Azimuth
Elevation
Range (km)
Doppler Factor

Next 0 passes for location: London (51.5072 / 0.1276)

No passes found over London.
EUTELSAT 7C